Voltar ao catálogo

KINEIS-4C

AtivoComunicaçõesSSO
NORAD 63301·PAYLOAD·🇫🇷 France

Lançado Mar 18, 2025 de Rocket Lab Launch Complex 1

Loading…

Próximas Passagens (próximas 24 horas)

TLE

AtualizadoSource: Space-Track

Época: Sep 14, 2026, 13:30 UTC

1 63301U 25056B   26257.56293014  .00001151  00000-0  18964-3 0  9992
2 63301  97.9191  19.3177 0004416  53.1946 306.9666 14.72332029 80289

Acompanhe KINEIS-4C em tempo real com AllMySat

Download on the App Store